WXForecasting.com
 BROWN COUNTY, SD  -  Winter Weather Advisory Winter Weather Advisory  
Aberdeen, SD - Weather Station Data
 
Daily Summary for December 06, 2016 Units:  English    Metric   Both
« Previous Day
Next Day »
Daily Weekly Monthly Yearly Custom
  Current: High: Low: Average:
Temperature: 16.8 °F 18.0 °F 16.0 °F 17.1 °F
Dew Point: 8.0 °F 11.0 °F 7.0 °F 9.6 °F
Humidity: 67 % 78 % 66 % 73 %
Wind Speed: 8.0 mph 23.0 mph 4.0 mph 9.8 mph
Wind Gust: 20.0 mph 41.0 mph - -
Wind:SE - - SSW
Pressure: 29.91 in 29.91 in 29.76 in -
Precipitation: 0.00 in      
Historical Graphs
 
 
Tabular Data for December 06, 2016
Time Temperature Dew Point Pressure Wind Wind Speed Wind Gust Humidity Rainfall Rate (Hourly) solar Conditions
00:13 18.0 °F 10.0 °F 29.80 in SW 7.0 mph 22.0 mph 72 % 0.00 in 0 W/m2
00:28 17.9 °F 11.0 °F 29.80 in SW 7.0 mph 25.0 mph 73 % 0.00 in 0 W/m2
00:43 17.9 °F 11.0 °F 29.79 in North 12.0 mph 24.0 mph 73 % 0.00 in 0 W/m2
00:58 17.9 °F 10.0 °F 29.80 in West 8.0 mph 32.0 mph 72 % 0.00 in 0 W/m2
01:13 17.8 °F 11.0 °F 29.80 in ESE 8.0 mph 23.0 mph 73 % 0.00 in 0 W/m2
01:28 17.8 °F 10.0 °F 29.79 in NNW 16.0 mph 30.0 mph 72 % 0.00 in 0 W/m2
01:43 17.7 °F 10.0 °F 29.79 in WNW 8.0 mph 23.0 mph 73 % 0.00 in 0 W/m2
01:58 17.6 °F 10.0 °F 29.79 in NE 5.0 mph 27.0 mph 72 % 0.00 in 0 W/m2
02:13 17.6 °F 10.0 °F 29.79 in SSW 6.0 mph 22.0 mph 73 % 0.00 in 0 W/m2
02:29 17.6 °F 10.0 °F 29.79 in NE 6.0 mph 31.0 mph 73 % 0.00 in 0 W/m2
02:43 17.5 °F 10.0 °F 29.79 in WNW 16.0 mph 22.0 mph 73 % 0.00 in 0 W/m2
02:58 17.5 °F 11.0 °F 29.79 in West 10.0 mph 24.0 mph 74 % 0.00 in 0 W/m2
03:13 17.6 °F 10.0 °F 29.79 in WSW 4.0 mph 41.0 mph 73 % 0.00 in 0 W/m2
03:29 17.6 °F 10.0 °F 29.78 in NNE 13.0 mph 24.0 mph 73 % 0.00 in 0 W/m2
03:44 17.8 °F 10.0 °F 29.78 in WNW 8.0 mph 23.0 mph 72 % 0.00 in 0 W/m2
03:59 17.8 °F 10.0 °F 29.77 in ENE 9.0 mph 28.0 mph 72 % 0.00 in 0 W/m2
04:13 17.7 °F 10.0 °F 29.77 in West 12.0 mph 26.0 mph 73 % 0.00 in 0 W/m2
04:29 17.6 °F 10.0 °F 29.76 in South 12.0 mph 28.0 mph 73 % 0.00 in 0 W/m2
04:43 17.4 °F 11.0 °F 29.76 in NNE 4.0 mph 24.0 mph 75 % 0.00 in 0 W/m2
04:59 17.3 °F 11.0 °F 29.77 in East 4.0 mph 27.0 mph 76 % 0.00 in 0 W/m2
05:13 17.2 °F 11.0 °F 29.76 in NE 9.0 mph 29.0 mph 77 % 0.00 in 0 W/m2
05:28 17.1 °F 11.0 °F 29.76 in WSW 12.0 mph 25.0 mph 78 % 0.00 in 0 W/m2
05:44 17.2 °F 11.0 °F 29.77 in NNW 15.0 mph 26.0 mph 77 % 0.00 in 0 W/m2
05:59 17.2 °F 11.0 °F 29.77 in North 5.0 mph 17.0 mph 77 % 0.00 in 0 W/m2
06:14 17.0 °F 11.0 °F 29.78 in SSW 7.0 mph 20.0 mph 78 % 0.00 in 0 W/m2
06:28 16.9 °F 11.0 °F 29.78 in West 7.0 mph 24.0 mph 78 % 0.00 in 0 W/m2
06:44 16.7 °F 11.0 °F 29.78 in SW 12.0 mph 17.0 mph 78 % 0.00 in 0 W/m2
06:59 16.7 °F 10.0 °F 29.78 in West 23.0 mph 24.0 mph 76 % 0.00 in 0 W/m2
07:14 16.7 °F 10.0 °F 29.78 in West 10.0 mph 20.0 mph 76 % 0.00 in 0 W/m2
07:29 16.6 °F 10.0 °F 29.79 in South 8.0 mph 22.0 mph 75 % 0.00 in 0 W/m2
07:44 16.6 °F 10.0 °F 29.79 in SSW 8.0 mph 26.0 mph 74 % 0.00 in 0 W/m2
07:59 16.4 °F 9.0 °F 29.79 in WSW 13.0 mph 23.0 mph 74 % 0.00 in 0 W/m2
08:14 16.2 °F 9.0 °F 29.80 in East 11.0 mph 23.0 mph 74 % 0.00 in 12 W/m2
08:29 16.1 °F 9.0 °F 29.81 in West 10.0 mph 26.0 mph 74 % 0.00 in 21 W/m2
08:44 16.0 °F 9.0 °F 29.82 in NNW 16.0 mph 24.0 mph 73 % 0.00 in 35 W/m2
08:59 16.2 °F 9.0 °F 29.83 in SSW 10.0 mph 16.0 mph 73 % 0.00 in 49 W/m2
09:14 16.2 °F 9.0 °F 29.84 in WSW 8.0 mph 23.0 mph 73 % 0.00 in 58 W/m2
09:29 16.3 °F 9.0 °F 29.85 in East 11.0 mph 24.0 mph 72 % 0.00 in 83 W/m2
09:44 16.4 °F 9.0 °F 29.85 in West 11.0 mph 26.0 mph 72 % 0.00 in 120 W/m2
09:59 16.7 °F 9.0 °F 29.86 in North 13.0 mph 24.0 mph 71 % 0.00 in 148 W/m2
10:14 16.7 °F 9.0 °F 29.87 in NNE 12.0 mph 25.0 mph 70 % 0.00 in 162 W/m2
10:29 16.8 °F 9.0 °F 29.88 in SW 10.0 mph 22.0 mph 70 % 0.00 in 146 W/m2
10:44 16.6 °F 8.0 °F 29.88 in WSW 8.0 mph 27.0 mph 69 % 0.00 in 171 W/m2
11:00 16.7 °F 8.0 °F 29.89 in North 11.0 mph 19.0 mph 68 % 0.00 in 162 W/m2
11:14 16.7 °F 8.0 °F 29.89 in NNE 4.0 mph 23.0 mph 68 % 0.00 in 188 W/m2
11:30 16.8 °F 8.0 °F 29.89 in NW 14.0 mph 30.0 mph 68 % 0.00 in 200 W/m2
11:45 16.6 °F 7.0 °F 29.89 in WSW 17.0 mph 23.0 mph 67 % 0.00 in 155 W/m2
11:59 16.5 °F 7.0 °F 29.89 in NE 9.0 mph 28.0 mph 67 % 0.00 in 172 W/m2
12:29 17.0 °F 8.0 °F 29.90 in West 4.0 mph 17.0 mph 67 % 0.00 in 188 W/m2
12:45 17.1 °F 8.0 °F 29.91 in WNW 12.0 mph 19.0 mph 67 % 0.00 in 193 W/m2
12:59 17.1 °F 8.0 °F 29.91 in SSW 12.0 mph 23.0 mph 67 % 0.00 in 178 W/m2
13:15 16.7 °F 7.0 °F 29.91 in SW 5.0 mph 26.0 mph 66 % 0.00 in 153 W/m2
13:30 16.8 °F 8.0 °F 29.91 in SE 8.0 mph 20.0 mph 67 % 0.00 in 146 W/m2
Compliments of Weather Underground - 2.5 mb

16 Visitors online right now
Max visitors today: 79 at 11:35 am EST
This month: 79 at 12-06-2016 11:35 am EST
This year: 94 at 10-13-2016 07:30 am EDT
All time: 104 at 01-04-2012 03:34 am EST
See Who is Online